Погода в Кугенерке

Россия / Республика Марий Эл     56°38′23″N   48°06′26″E
темп.,
°C
ветер,
м/с
пор.,
м/с
влажн.,
%
обл.,
%
осадки,
мм/ч
давл.,
гПа
погр.,
м
7 марта, вс
вс700:00−15зюз229875 0.1 101120
03:00−15юз239878 0.1 101145
06:00−16юз239895 0.1 101034
09:00−14ююз249696 0.1 1009178
12:00−9ю479190 0.0 1007506
15:00−8ю698995 0.1 1004659
18:00−8ю61293100 0.1 1000698
21:00−7ю71394100 1.6 997876
8 марта, пн
пн800:00−6ю61294100 1.2 993742
03:00−6ю41096100 1.9 990479
06:00−6ю2597100 1.4 989208
09:00−6з71387100 2.4 991843
12:00−5з6117699 0.0 994832
15:00−5з588493 0.0 996954
18:00−8зюз3695100 0.1 998155
21:00−10з369699 0.1 1000117
9 марта, вт
вт900:00−14зсз359657 0.0 100289
03:00−16зсз339764 0.1 100551
06:00−17сз239889 0.1 100745
09:00−15ссз239490 0.1 1009233
12:00−12с238699 0.1 1011539
15:00−12с3487100 0.1 1011637
18:00−14с2695100 0.1 1012226
21:00−16с489498 0.1 1014282
10 марта, ср
ср1000:00−21с4109792 0.0 1015236
03:00−25с499692 0.0 1017199
06:00−28с4109521 0.0 1018227
09:00−26с589340 0.0 1020310
12:00−22с588920 0.0 1021438
15:00−19ссз588311 0.0 1021639
18:00−22ссз359319 0.0 102288
21:00−24сз35969 0.0 102373
11 марта, чт
чт1100:00−24сз34980 0.0 102468
03:00−24зсз37990 0.0 1024117
06:00−21зсз4109581 0.0 1024272
09:00−19зсз589281 0.0 1024326
12:00−13сз598987 0.0 1024444
15:00−10сз488992 0.1 1025629
18:00−12зсз369399 0.0 1026110
21:00−14сз359572 0.0 102890